sat.trackr.live / text

‹ back to catalog

STARLINK-35115

NORAD 65665 · 2025-211P

PAYLOAD ACTIVE UNKNOWN

§ Identity

Operator
Country
US
Launch date
2025-09-19
Launch site
AFWTR
Launch vehicle
Mass (kg)
RCS (m²)

Purposes: comms

External: N2YO · Heavens-Above · Gunter

§ Orbital elements

Epoch: 2026-09-20T06:06:46.562976Z

Period
93.91 min
Inclination
97.2847°
Eccentricity
0.0001051
Mean motion
15.33435982 rev/d
Perigee alt
464.9 km
Apogee alt
466.3 km
Semi-major
6,843.7 km
B*
5.7369e-4
RAAN
303.4603°
Arg perigee
80.8740°
Mean anomaly
279.2622°
Rev number
5,648

§ Raw data

STARLINK-351151 65665U 25211P   26263.25470559  .00018486  00000+0  57369-3 0  99942 65665  97.2847 303.4603 0001051  80.8740 279.2622 15.33435982 56486

JSON: /api/v1/satellites/65665 · /tle

For live sub-satellite position, see the globe view (requires WebGL).

§ Visibility from observer

Set your observer location to see the next 7 days of passes ≥ 10°. The values pass through the URL so the page stays shareable.

No JS? Fill the form by hand. The geolocation button needs JavaScript.